| time (UTC) | temp F | wind direction | speed MPH | gust MPH | rain 1hr in | rain 24hr in | rain mn in | humidity % | barometer mb |
| 20260902212528 | 86 | 191 | 6.0 | 9.0 | 0.00 | 0.00 | 0.00 | 73 | 1016.4 |
| 20260902211523 | 86 | 197 | 3.0 | 7.0 | 0.00 | 0.00 | 0.00 | 71 | 1016.5 |
| 20260902210518 | 86 | 133 | 5.0 | 11.0 | 0.00 | 0.00 | 0.00 | 70 | 1016.7 |
| 20260902205534 | 87 | 117 | 4.0 | 6.0 | 0.00 | 0.00 | 0.00 | 68 | 1016.6 |
| 20260902204529 | 88 | 122 | 4.0 | 8.0 | 0.00 | 0.00 | 0.00 | 68 | 1016.5 |
| 20260902203524 | 87 | 125 | 5.0 | 8.0 | 0.00 | 0.00 | 0.00 | 71 | 1016.6 |
| 20260902202519 | 88 | 134 | 5.0 | 9.0 | 0.00 | 0.00 | 0.00 | 68 | 1016.8 |
| 20260902201534 | 88 | 122 | 4.0 | 6.0 | 0.00 | 0.00 | 0.00 | 67 | 1016.8 |
| 20260902200529 | 89 | 114 | 4.0 | 9.0 | 0.00 | 0.00 | 0.00 | 66 | 1017.0 |
| 20260902195524 | 89 | 117 | 4.0 | 6.0 | 0.00 | 0.00 | 0.00 | 69 | 1017.1 |
| 20260902194520 | 88 | 126 | 4.0 | 8.0 | 0.00 | 0.00 | 0.00 | 68 | 1017.1 |
| 20260902193535 | 88 | 137 | 5.0 | 8.0 | 0.00 | 0.00 | 0.00 | 67 | 1017.2 |
| 20260902192530 | 88 | 136 | 5.0 | 10.0 | 0.00 | 0.00 | 0.00 | 67 | 1017.1 |
| 20260902191525 | 90 | 159 | 7.0 | 14.0 | 0.00 | 0.00 | 0.00 | 66 | 1017.2 |
| 20260902190520 | 90 | 154 | 7.0 | 12.0 | 0.00 | 0.00 | 0.00 | 66 | 1017.3 |
| 20260902185536 | 91 | 158 | 7.0 | 10.0 | 0.00 | 0.00 | 0.00 | 64 | 1017.2 |
| 20260902184531 | 92 | 146 | 8.0 | 10.0 | 0.00 | 0.00 | 0.00 | 64 | 1017.3 |
| 20260902183525 | 92 | 148 | 7.0 | 10.0 | 0.00 | 0.00 | 0.00 | 65 | 1017.3 |
| 20260902182520 | 92 | 152 | 7.0 | 9.0 | 0.00 | 0.00 | 0.00 | 65 | 1017.3 |
| 20260902181535 | 92 | 152 | 7.0 | 9.0 | 0.00 | 0.00 | 0.00 | 66 | 1017.4 |
| 20260902180530 | 91 | 153 | 8.0 | 11.0 | 0.00 | 0.00 | 0.00 | 63 | 1017.5 |
| 20260902175525 | 91 | 156 | 8.0 | 14.0 | 0.00 | 0.00 | 0.00 | 62 | 1017.5 |
| 20260902174520 | 91 | 155 | 8.0 | 12.0 | 0.00 | 0.00 | 0.00 | 63 | 1017.6 |
| 20260902173535 | 92 | 154 | 8.0 | 11.0 | 0.00 | 0.00 | 0.00 | 61 | 1017.5 |
| 20260902172531 | 92 | 152 | 7.0 | 11.0 | 0.00 | 0.00 | 0.00 | 60 | 1017.5 |
| 20260902171526 | 91 | 154 | 8.0 | 11.0 | 0.00 | 0.00 | 0.00 | 62 | 1017.7 |
| 20260902170521 | 92 | 153 | 8.0 | 10.0 | 0.00 | 0.00 | 0.00 | 62 | 1017.7 |
| 20260902165516 | 92 | 152 | 8.0 | 10.0 | 0.00 | 0.00 | 0.00 | 63 | 1017.8 |
| 20260902164532 | 92 | 155 | 7.0 | 9.0 | 0.00 | 0.00 | 0.00 | 62 | 1017.8 |
| 20260902163527 | 92 | 151 | 7.0 | 10.0 | 0.00 | 0.00 | 0.00 | 61 | 1017.9 |
| 20260902162522 | 92 | 152 | 8.0 | 10.0 | 0.00 | 0.00 | 0.00 | 62 | 1018.0 |
| 20260902161518 | 91 | 152 | 7.0 | 9.0 | 0.00 | 0.00 | 0.00 | 64 | 1018.0 |
| 20260902160533 | 90 | 130 | 7.0 | 9.0 | 0.00 | 0.00 | 0.00 | 65 | 1018.0 |
| 20260902155528 | 91 | 145 | 7.0 | 10.0 | 0.00 | 0.00 | 0.00 | 64 | 1017.9 |
| 20260902154523 | 90 | 144 | 8.0 | 9.0 | 0.00 | 0.00 | 0.00 | 66 | 1017.9 |
| 20260902153518 | 89 | 133 | 9.0 | 11.0 | 0.00 | 0.00 | 0.00 | 65 | 1017.9 |
| 20260902152533 | 90 | 140 | 7.0 | 9.0 | 0.00 | 0.00 | 0.00 | 64 | 1017.9 |
| 20260902151529 | 90 | 140 | 6.0 | 8.0 | 0.00 | 0.00 | 0.00 | 61 | 1017.9 |
| 20260902150524 | 90 | 145 | 8.0 | 10.0 | 0.00 | 0.00 | 0.00 | 61 | 1017.9 |
| 20260902145519 | 89 | 141 | 7.0 | 8.0 | 0.00 | 0.00 | 0.00 | 66 | 1017.9 |
| 20260902144534 | 88 | 128 | 7.0 | 9.0 | 0.00 | 0.00 | 0.00 | 65 | 1017.9 |
| 20260902143529 | 87 | 140 | 8.0 | 9.0 | 0.00 | 0.00 | 0.00 | 66 | 1017.9 |
| 20260902142524 | 86 | 133 | 7.0 | 9.0 | 0.00 | 0.00 | 0.00 | 69 | 1017.9 |
| 20260902141519 | 86 | 143 | 7.0 | 10.0 | 0.00 | 0.00 | 0.00 | 71 | 1017.9 |
| 20260902140535 | 85 | 143 | 7.0 | 9.0 | 0.00 | 0.00 | 0.00 | 73 | 1018.0 |
| 20260902135530 | 85 | 139 | 8.0 | 11.0 | 0.00 | 0.00 | 0.00 | 74 | 1018.0 |
| 20260902134525 | 84 | 140 | 8.0 | 9.0 | 0.00 | 0.00 | 0.00 | 76 | 1018.1 |
| 20260902133520 | 83 | 135 | 7.0 | 10.0 | 0.00 | 0.00 | 0.00 | 79 | 1018.1 |
| 20260902132535 | 83 | 143 | 7.0 | 10.0 | 0.00 | 0.00 | 0.00 | 79 | 1018.1 |
| 20260902131530 | 82 | 134 | 8.0 | 10.0 | 0.00 | 0.00 | 0.00 | 83 | 1018.3 |
| 20260902130526 | 80 | 136 | 8.0 | 10.0 | 0.00 | 0.00 | 0.00 | 87 | 1018.3 |
| 20260902125521 | 79 | 133 | 7.0 | 10.0 | 0.00 | 0.00 | 0.00 | 91 | 1018.3 |
| 20260902124516 | 78 | 137 | 8.0 | 9.0 | 0.00 | 0.00 | 0.00 | 97 | 1018.3 |
| 20260902123532 | 77 | 136 | 8.0 | 9.0 | 0.00 | 0.00 | 0.00 | 97 | 1018.5 |
| 20260902122526 | 77 | 136 | 8.0 | 10.0 | 0.00 | 0.00 | 0.00 | 97 | 1018.4 |
| 20260902121522 | 76 | 136 | 8.0 | 9.0 | 0.00 | 0.00 | 0.00 | 97 | 1018.5 |
| 20260902120517 | 76 | 134 | 9.0 | 10.0 | 0.00 | 0.00 | 0.00 | 97 | 1018.4 |
| 20260902115532 | 76 | 137 | 8.0 | 10.0 | 0.00 | 0.00 | 0.00 | 97 | 1018.4 |
| 20260902114528 | 75 | 138 | 8.0 | 10.0 | 0.00 | 0.00 | 0.00 | 97 | 1018.4 |
| 20260902113523 | 75 | 133 | 9.0 | 11.0 | 0.00 | 0.00 | 0.00 | 97 | 1018.3 |
| 20260902112518 | 75 | 133 | 9.0 | 11.0 | 0.00 | 0.00 | 0.00 | 97 | 1018.3 |
| 20260902111533 | 74 | 133 | 9.0 | 10.0 | 0.00 | 0.00 | 0.00 | 97 | 1018.3 |
| 20260902110528 | 74 | 129 | 8.0 | 11.0 | 0.00 | 0.00 | 0.00 | 97 | 1018.2 |
| 20260902105524 | 74 | 132 | 9.0 | 10.0 | 0.00 | 0.00 | 0.00 | 97 | 1018.1 |
| 20260902104519 | 74 | 136 | 9.0 | 11.0 | 0.00 | 0.00 | 0.00 | 97 | 1018.1 |
| 20260902103534 | 75 | 132 | 9.0 | 10.0 | 0.00 | 0.00 | 0.00 | 97 | 1018.0 |
| 20260902102529 | 75 | 132 | 9.0 | 10.0 | 0.00 | 0.00 | 0.00 | 97 | 1017.9 |
| 20260902101524 | 75 | 132 | 9.0 | 10.0 | 0.00 | 0.00 | 0.00 | 97 | 1017.7 |
| 20260902100520 | 75 | 135 | 9.0 | 11.0 | 0.00 | 0.00 | 0.00 | 97 | 1017.7 |
| 20260902095535 | 75 | 131 | 9.0 | 11.0 | 0.00 | 0.00 | 0.00 | 97 | 1017.7 |
| 20260902094530 | 75 | 127 | 8.0 | 10.0 | 0.00 | 0.00 | 0.00 | 97 | 1017.5 |
| 20260902093525 | 75 | 131 | 8.0 | 11.0 | 0.00 | 0.00 | 0.00 | 97 | 1017.6 |
| 20260902092520 | 75 | 136 | 9.0 | 11.0 | 0.00 | 0.00 | 0.00 | 97 | 1017.6 |
| 20260902091535 | 75 | 135 | 9.0 | 11.0 | 0.00 | 0.00 | 0.00 | 97 | 1017.5 |
| 20260902090531 | 75 | 129 | 7.0 | 10.0 | 0.00 | 0.00 | 0.00 | 97 | 1017.4 |
| 20260902085526 | 75 | 133 | 8.0 | 10.0 | 0.00 | 0.00 | 0.00 | 96 | 1017.4 |
| 20260902084521 | 75 | 141 | 9.0 | 10.0 | 0.00 | 0.00 | 0.00 | 96 | 1017.5 |
| 20260902083536 | 75 | 141 | 9.0 | 11.0 | 0.00 | 0.00 | 0.00 | 96 | 1017.4 |
| 20260902082531 | 76 | 138 | 8.0 | 10.0 | 0.00 | 0.00 | 0.00 | 96 | 1017.4 |
| 20260902081526 | 76 | 121 | 6.0 | 10.0 | 0.00 | 0.00 | 0.00 | 96 | 1017.3 |
| 20260902080521 | 76 | 139 | 9.0 | 11.0 | 0.00 | 0.00 | 0.00 | 96 | 1017.1 |
| 20260902075536 | 76 | 136 | 8.0 | 10.0 | 0.00 | 0.00 | 0.00 | 96 | 1017.2 |
| 20260902074531 | 76 | 134 | 8.0 | 9.0 | 0.00 | 0.00 | 0.00 | 96 | 1017.2 |
| 20260902073526 | 76 | 135 | 8.0 | 9.0 | 0.00 | 0.00 | 0.00 | 95 | 1017.2 |
| 20260902072522 | 76 | 133 | 8.0 | 9.0 | 0.00 | 0.00 | 0.00 | 95 | 1017.3 |
| 20260902071517 | 76 | 135 | 8.0 | 9.0 | 0.00 | 0.00 | 0.00 | 95 | 1017.3 |
| 20260902070533 | 76 | 133 | 8.0 | 9.0 | 0.00 | 0.00 | 0.00 | 95 | 1017.4 |
| 20260902065527 | 77 | 136 | 8.0 | 9.0 | 0.00 | 0.00 | 0.00 | 94 | 1017.5 |
| 20260902064523 | 77 | 136 | 8.0 | 9.0 | 0.00 | 0.00 | 0.00 | 94 | 1017.5 |
| 20260902063518 | 77 | 134 | 8.0 | 9.0 | 0.00 | 0.00 | 0.00 | 94 | 1017.5 |
| 20260902062534 | 77 | 133 | 8.0 | 9.0 | 0.00 | 0.00 | 0.00 | 93 | 1017.5 |
| 20260902061529 | 78 | 134 | 8.0 | 9.0 | 0.00 | 0.00 | 0.00 | 93 | 1017.6 |
| 20260902060524 | 78 | 134 | 8.0 | 9.0 | 0.00 | 0.00 | 0.00 | 93 | 1017.4 |
| 20260902055519 | 78 | 136 | 8.0 | 9.0 | 0.00 | 0.00 | 0.00 | 92 | 1017.6 |
| 20260902054535 | 78 | 134 | 8.0 | 9.0 | 0.00 | 0.00 | 0.00 | 91 | 1017.5 |
| 20260902053530 | 79 | 136 | 8.0 | 9.0 | 0.00 | 0.00 | 0.00 | 91 | 1017.5 |
| 20260902052525 | 79 | 136 | 8.0 | 9.0 | 0.00 | 0.00 | 0.00 | 90 | 1017.5 |
| 20260902051520 | 79 | 138 | 8.0 | 9.0 | 0.00 | 0.00 | 0.00 | 88 | 1017.4 |
| 20260902050536 | 80 | 139 | 8.0 | 10.0 | 0.00 | 0.00 | 0.00 | 88 | 1017.5 |
| 20260902045531 | 80 | 140 | 8.0 | 10.0 | 0.00 | 0.00 | 0.00 | 88 | 1017.4 |
| 20260902044527 | 80 | 138 | 8.0 | 9.0 | 0.00 | 0.00 | 0.00 | 88 | 1017.5 |
| 20260902043521 | 80 | 142 | 9.0 | 10.0 | 0.00 | 0.00 | 0.00 | 88 | 1017.3 |
| 20260902042517 | 80 | 141 | 8.0 | 10.0 | 0.00 | 0.00 | 0.00 | 89 | 1017.3 |
| 20260902041532 | 79 | 140 | 9.0 | 10.0 | 0.00 | 0.00 | 0.00 | 89 | 1017.2 |
| 20260902040527 | 79 | 138 | 8.0 | 9.0 | 0.00 | 0.00 | 0.00 | 89 | 1017.2 |
| 20260902035522 | 80 | 138 | 8.0 | 10.0 | 0.00 | 0.00 | 0.00 | 88 | 1017.2 |
| 20260902034518 | 80 | 139 | 8.0 | 9.0 | 0.00 | 0.00 | 0.00 | 88 | 1017.1 |
| 20260902033533 | 80 | 139 | 8.0 | 9.0 | 0.00 | 0.00 | 0.00 | 87 | 1017.0 |
| 20260902032528 | 80 | 139 | 8.0 | 10.0 | 0.00 | 0.00 | 0.00 | 87 | 1017.0 |
| 20260902031523 | 80 | 140 | 8.0 | 11.0 | 0.00 | 0.00 | 0.00 | 87 | 1017.1 |
| 20260902030519 | 80 | 143 | 8.0 | 12.0 | 0.00 | 0.00 | 0.00 | 86 | 1017.0 |
| 20260902025534 | 80 | 141 | 8.0 | 10.0 | 0.00 | 0.00 | 0.00 | 86 | 1017.0 |
| 20260902024529 | 80 | 141 | 8.0 | 11.0 | 0.00 | 0.00 | 0.00 | 85 | 1017.2 |
| 20260902023524 | 80 | 143 | 8.0 | 10.0 | 0.00 | 0.00 | 0.00 | 86 | 1017.2 |
| 20260902022519 | 81 | 141 | 8.0 | 9.0 | 0.00 | 0.00 | 0.00 | 85 | 1017.3 |
| 20260902021535 | 81 | 143 | 8.0 | 10.0 | 0.00 | 0.00 | 0.00 | 85 | 1017.3 |
| 20260902020530 | 81 | 142 | 8.0 | 10.0 | 0.00 | 0.00 | 0.00 | 85 | 1017.2 |
| 20260902015525 | 81 | 142 | 8.0 | 10.0 | 0.00 | 0.00 | 0.00 | 85 | 1017.3 |
| 20260902014520 | 81 | 142 | 8.0 | 10.0 | 0.00 | 0.00 | 0.00 | 84 | 1017.1 |
| 20260902013535 | 81 | 139 | 8.0 | 10.0 | 0.00 | 0.00 | 0.00 | 84 | 1017.1 |
| 20260902012531 | 80 | 141 | 8.0 | 10.0 | 0.00 | 0.00 | 0.00 | 84 | 1017.1 |
| 20260902011526 | 80 | 139 | 8.0 | 10.0 | 0.00 | 0.00 | 0.00 | 85 | 1017.1 |
| 20260902010521 | 80 | 141 | 8.0 | 9.0 | 0.00 | 0.00 | 0.00 | 85 | 1017.1 |
| 20260902005516 | 80 | 142 | 8.0 | 9.0 | 0.00 | 0.00 | 0.00 | 85 | 1017.1 |
| 20260902004532 | 80 | 140 | 9.0 | 10.0 | 0.00 | 0.00 | 0.00 | 86 | 1017.0 |
| 20260902003527 | 80 | 139 | 8.0 | 9.0 | 0.00 | 0.00 | 0.00 | 85 | 1017.1 |
| 20260902002522 | 80 | 139 | 8.0 | 9.0 | 0.00 | 0.00 | 0.00 | 84 | 1016.9 |
| 20260902001517 | 81 | 138 | 8.0 | 9.0 | 0.00 | 0.00 | 0.00 | 83 | 1016.8 |
| 20260902000533 | 81 | 141 | 8.0 | 9.0 | 0.00 | 0.00 | 0.00 | 82 | 1016.8 |
| 20260901235528 | 81 | 140 | 8.0 | 9.0 | 0.00 | 0.00 | 0.00 | 81 | 1016.8 |
| 20260901234523 | 82 | 142 | 8.0 | 10.0 | 0.00 | 0.00 | 0.00 | 80 | 1016.8 |
| 20260901233518 | 82 | 161 | 7.0 | 10.0 | 0.00 | 0.00 | 0.00 | 79 | 1016.9 |
| 20260901232533 | 82 | 189 | 5.0 | 10.0 | 0.00 | 0.00 | 0.00 | 78 | 1016.9 |
| 20260901231528 | 82 | 187 | 5.0 | 7.0 | 0.00 | 0.00 | 0.00 | 76 | 1017.0 |
| 20260901230523 | 83 | 187 | 6.0 | 8.0 | 0.00 | 0.00 | 0.00 | 75 | 1017.2 |
| 20260901225518 | 83 | 185 | 5.0 | 8.0 | 0.00 | 0.00 | 0.00 | 76 | 1017.2 |
| 20260901224533 | 83 | 184 | 5.0 | 6.0 | 0.00 | 0.00 | 0.00 | 75 | 1017.1 |
| 20260901223529 | 83 | 188 | 6.0 | 9.0 | 0.00 | 0.00 | 0.00 | 75 | 1017.1 |
| 20260901222524 | 83 | 185 | 5.0 | 8.0 | 0.00 | 0.00 | 0.00 | 76 | 1017.1 |
| 20260901221519 | 83 | 177 | 5.0 | 6.0 | 0.00 | 0.00 | 0.00 | 76 | 1017.1 |
| 20260901220534 | 83 | 190 | 5.0 | 8.0 | 0.00 | 0.00 | 0.00 | 75 | 1017.1 |
| 20260901215529 | 84 | 188 | 5.0 | 7.0 | 0.00 | 0.00 | 0.00 | 76 | 1017.0 |
| 20260901214525 | 84 | 193 | 6.0 | 10.0 | 0.00 | 0.00 | 0.00 | 75 | 1016.9 |
| 20260901213520 | 84 | 180 | 5.0 | 6.0 | 0.00 | 0.00 | 0.00 | 76 | 1016.8 |